Location: Newark
(42.8481°N, 0.4872°E)
Time: 23:42:52
(UTC+00:00)

Transit 2A - Pass Details

Date: 31 October 2020
Orbit: 595 x 963 km, 66.7° (Epoch: 03 December)

Event Time Altitude Azimuth Distance (km) Brightness Sun altitude
Rises 06:53:28 0° 336° (NNW) 3,506 9.0 2.9°
Reaches altitude 10° 06:57:39 10° 3° (N) 2,480 8.5 3.6°
Maximum altitude 07:00:13 13° 30° (NNE) 2,213 8.5 4.1°
Drops below altitude 10° 07:02:41 10° 57° (ENE) 2,362 9.1 4.5°
Sets 07:06:26 0° 86° (E) 3,193 10.4 5.1°
